• In Deutschland
  • Länderverzeichnis
  • Für 7 Tage
  • Wassertemperatur
  • Satellitenkarten
  • Wetterkarte
  • Widgets
  • user-avatar
    Anmelden

    Stündliche Wetter Bernburg

    Heute, 15 August, Mittwoch

    Zeit Temperatur Niederschläge Wind Luftdruck Luftfeuchtigkeit
    00:00 +17°C° 0 mm 3 m/S 755 mmHg 83%
    01:00 +16°C° 0 mm 3 m/S 755 mmHg 87%
    02:00 +16°C° 0 mm 3 m/S 756 mmHg 89%
    03:00 +16°C° 0 mm 3 m/S 756 mmHg 90%
    04:00 +14°C° 0 mm 3 m/S 756 mmHg 91%
    05:00 +16°C° 0 mm 3 m/S 756 mmHg 87%
    06:00 +17°C° 0 mm 3 m/S 757 mmHg 83%
    07:00 +18°C° 0 mm 2 m/S 757 mmHg 78%
    08:00 +20°C° 0 mm 2 m/S 757 mmHg 71%
    09:00 +21°C° 0 mm 3 m/S 757 mmHg 64%
    10:00 +24°C° 0 mm 3 m/S 757 mmHg 58%
    11:00 +24°C° 0 mm 3 m/S 757 mmHg 55%
    12:00 +25°C° 0 mm 3 m/S 757 mmHg 52%
    13:00 +26°C° 0 mm 3 m/S 757 mmHg 50%
    14:00 +26°C° 0 mm 3 m/S 757 mmHg 49%
    15:00 +26°C° 0 mm 3 m/S 757 mmHg 49%
    16:00 +26°C° 0 mm 2 m/S 757 mmHg 48%
    17:00 +25°C° 0 mm 2 m/S 757 mmHg 52%
    18:00 +24°C° 0 mm 2 m/S 757 mmHg 56%
    19:00 +23°C° 0 mm 1 m/S 757 mmHg 59%
    20:00 +22°C° 0 mm 1 m/S 757 mmHg 63%
    21:00 +21°C° 0 mm 1 m/S 757 mmHg 66%
    22:00 +20°C° 0 mm 1 m/S 758 mmHg 69%
    23:00 +20°C° 0 mm 1 m/S 758 mmHg 71%

    Morgen, 16 August, Donnerstag

    Zeit Temperatur Niederschläge Wind Luftdruck Luftfeuchtigkeit
    00:00 +19°C° 0 mm 1 m/S 758 mmHg 73%
    01:00 +19°C° 0 mm 1 m/S 758 mmHg 75%
    02:00 +19°C° 0 mm 1 m/S 758 mmHg 76%
    03:00 +18°C° 0 mm 1 m/S 757 mmHg 78%
    04:00 +18°C° 0 mm 1 m/S 757 mmHg 79%
    05:00 +19°C° 0 mm 1 m/S 757 mmHg 76%
    06:00 +20°C° 0 mm 1 m/S 757 mmHg 73%
    07:00 +21°C° 0 mm 1 m/S 757 mmHg 71%
    08:00 +21°C° 0 mm 2 m/S 757 mmHg 64%
    09:00 +24°C° 0 mm 2 m/S 757 mmHg 57%
    10:00 +26°C° 0 mm 3 m/S 757 mmHg 51%
    11:00 +27°C° 0 mm 3 m/S 756 mmHg 48%
    12:00 +28°C° 0 mm 3 m/S 756 mmHg 45%
    13:00 +29°C° 0 mm 3 m/S 755 mmHg 42%
    14:00 +30°C° 0 mm 3 m/S 755 mmHg 41%
    15:00 +30°C° 0 mm 2 m/S 755 mmHg 40%
    16:00 +30°C° 0 mm 2 m/S 754 mmHg 39%
    17:00 +29°C° 0 mm 2 m/S 754 mmHg 43%
    18:00 +28°C° 0 mm 2 m/S 754 mmHg 48%
    19:00 +27°C° 0 mm 1 m/S 754 mmHg 52%
    20:00 +25°C° 0 mm 1 m/S 754 mmHg 55%
    21:00 +24°C° 0 mm 2 m/S 754 mmHg 59%
    22:00 +23°C° 0 mm 2 m/S 754 mmHg 62%
    23:00 +23°C° 0 mm 2 m/S 754 mmHg 64%

    übermorgen, 17 August, Freitag

    Zeit Temperatur Niederschläge Wind Luftdruck Luftfeuchtigkeit
    00:00 +21°C° 0 mm 2 m/S 754 mmHg 66%
    01:00 +21°C° 0 mm 2 m/S 754 mmHg 68%
    02:00 +20°C° 0 mm 2 m/S 754 mmHg 69%
    03:00 +21°C° 0 mm 1 m/S 754 mmHg 70%
    04:00 +21°C° 0 mm 1 m/S 754 mmHg 72%
    05:00 +21°C° 0 mm 1 m/S 754 mmHg 69%
    06:00 +22°C° 0 mm 1 m/S 754 mmHg 67%
    07:00 +23°C° 0 mm 1 m/S 754 mmHg 65%
    08:00 +25°C° 0 mm 1 m/S 754 mmHg 59%
    09:00 +27°C° 0 mm 1 m/S 754 mmHg 53%
    10:00 +29°C° 0 mm 1 m/S 754 mmHg 47%
    11:00 +30°C° 0 mm 1 m/S 754 mmHg 44%
    12:00 +31°C° 0 mm 1 m/S 754 mmHg 41%
    13:00 +32°C° 0 mm 1 m/S 754 mmHg 38%
    14:00 +31°C° 0 mm 1 m/S 754 mmHg 41%
    15:00 +31°C° 0 mm 2 m/S 754 mmHg 43%
    16:00 +30°C° 0 mm 2 m/S 754 mmHg 46%
    17:00 +28°C° 0,1 mm 3 m/S 754 mmHg 52%
    18:00 +27°C° 0,1 mm 4 m/S 754 mmHg 59%
    19:00 +25°C° 0,1 mm 5 m/S 755 mmHg 66%
    20:00 +23°C° 1,2 mm 4 m/S 755 mmHg 73%
    21:00 +22°C° 1,2 mm 4 m/S 755 mmHg 80%
    22:00 +20°C° 1,2 mm 3 m/S 756 mmHg 87%
    23:00 +20°C° 0,4 mm 3 m/S 756 mmHg 88%

    18 August, Samstag

    Zeit Temperatur Niederschläge Wind Luftdruck Luftfeuchtigkeit
    00:00 +20°C° 0,4 mm 3 m/S 756 mmHg 89%
    01:00 +19°C° 0,4 mm 3 m/S 756 mmHg 90%
    02:00 +19°C° 0 mm 3 m/S 756 mmHg 90%
    03:00 +18°C° 0 mm 3 m/S 757 mmHg 90%
    04:00 +18°C° 0 mm 3 m/S 757 mmHg 90%
    05:00 +18°C° 0 mm 3 m/S 757 mmHg 87%
    06:00 +18°C° 0 mm 3 m/S 757 mmHg 84%
    07:00 +18°C° 0 mm 3 m/S 758 mmHg 81%
    08:00 +20°C° 0 mm 2 m/S 758 mmHg 73%
    09:00 +21°C° 0 mm 2 m/S 758 mmHg 66%
    10:00 +23°C° 0 mm 2 m/S 758 mmHg 58%
    11:00 +24°C° 0 mm 2 m/S 758 mmHg 54%
    12:00 +25°C° 0 mm 2 m/S 758 mmHg 49%
    13:00 +26°C° 0 mm 2 m/S 758 mmHg 45%
    14:00 +27°C° 0 mm 2 m/S 758 mmHg 43%
    15:00 +27°C° 0 mm 2 m/S 758 mmHg 41%
    16:00 +28°C° 0 mm 3 m/S 758 mmHg 39%
    17:00 +26°C° 0 mm 2 m/S 758 mmHg 43%
    18:00 +25°C° 0 mm 2 m/S 758 mmHg 47%
    19:00 +24°C° 0 mm 2 m/S 758 mmHg 51%
    20:00 +23°C° 0 mm 2 m/S 758 mmHg 53%
    21:00 +20°C° 0 mm 2 m/S 759 mmHg 54%
    22:00 +19°C° 0 mm 2 m/S 759 mmHg 56%
    23:00 +19°C° 0 mm 2 m/S 759 mmHg 58%

    19 August, Sonntag

    Zeit Temperatur Niederschläge Wind Luftdruck Luftfeuchtigkeit
    00:00 +18°C° 0 mm 2 m/S 759 mmHg 60%
    01:00 +18°C° 0 mm 2 m/S 760 mmHg 63%
    02:00 +17°C° 0 mm 2 m/S 760 mmHg 66%
    03:00 +17°C° 0 mm 2 m/S 760 mmHg 70%
    04:00 +17°C° 0 mm 2 m/S 760 mmHg 73%
    05:00 +18°C° 0 mm 1 m/S 760 mmHg 73%
    06:00 +19°C° 0 mm 1 m/S 761 mmHg 72%
    07:00 +20°C° 0 mm 1 m/S 761 mmHg 72%
    08:00 +21°C° 0 mm 1 m/S 761 mmHg 67%
    09:00 +23°C° 0 mm 2 m/S 761 mmHg 63%
    10:00 +24°C° 0 mm 2 m/S 761 mmHg 58%
    11:00 +25°C° 0 mm 2 m/S 761 mmHg 56%
    12:00 +25°C° 0 mm 2 m/S 761 mmHg 54%
    13:00 +26°C° 0 mm 2 m/S 761 mmHg 52%
    14:00 +26°C° 0 mm 2 m/S 760 mmHg 51%
    15:00 +26°C° 0 mm 2 m/S 760 mmHg 50%
    16:00 +27°C° 0 mm 2 m/S 760 mmHg 48%
    17:00 +26°C° 0 mm 1 m/S 760 mmHg 53%
    18:00 +25°C° 0 mm 1 m/S 760 mmHg 57%
    19:00 +24°C° 0 mm 1 m/S 760 mmHg 61%
    20:00 +23°C° 0 mm 1 m/S 760 mmHg 64%
    21:00 +22°C° 0 mm 1 m/S 760 mmHg 67%
    22:00 +21°C° 0 mm 1 m/S 760 mmHg 70%
    23:00 +20°C° 0 mm 1 m/S 760 mmHg 71%

    20 August, Montag

    Zeit Temperatur Niederschläge Wind Luftdruck Luftfeuchtigkeit
    00:00 +19°C° 0 mm 2 m/S 760 mmHg 73%
    01:00 +19°C° 0 mm 2 m/S 760 mmHg 75%
    02:00 +19°C° 0 mm 2 m/S 759 mmHg 75%
    03:00 +18°C° 0 mm 2 m/S 759 mmHg 76%
    04:00 +18°C° 0 mm 2 m/S 759 mmHg 77%
    05:00 +19°C° 0 mm 2 m/S 759 mmHg 74%
    06:00 +20°C° 0 mm 2 m/S 759 mmHg 71%
    07:00 +21°C° 0 mm 2 m/S 759 mmHg 68%
    08:00 +24°C° 0 mm 3 m/S 759 mmHg 62%
    09:00 +26°C° 0 mm 3 m/S 759 mmHg 56%
    10:00 +27°C° 0 mm 3 m/S 759 mmHg 50%
    11:00 +28°C° 0 mm 4 m/S 759 mmHg 47%
    12:00 +29°C° 0 mm 4 m/S 758 mmHg 44%
    13:00 +30°C° 0 mm 4 m/S 758 mmHg 42%
    14:00 +30°C° 0 mm 4 m/S 758 mmHg 43%
    15:00 +30°C° 0 mm 4 m/S 758 mmHg 44%
    16:00 +30°C° 0 mm 4 m/S 758 mmHg 45%
    17:00 +28°C° 0 mm 4 m/S 758 mmHg 51%
    18:00 +27°C° 0 mm 4 m/S 758 mmHg 58%
    19:00 +25°C° 0 mm 3 m/S 758 mmHg 64%
    20:00 +24°C° 0 mm 3 m/S 758 mmHg 68%
    21:00 +23°C° 0 mm 2 m/S 759 mmHg 73%
    22:00 +21°C° 0 mm 2 m/S 759 mmHg 78%
    23:00 +20°C° 0 mm 2 m/S 759 mmHg 80%
    Mehr zeigen